Time,TemperatureF,DewpointF,PressureIn,WindDirection,WindDirectionDegrees,WindSpeedMPH,WindSpeedGustMPH,Humidity,HourlyPrecipIn,Conditions,Clouds,dailyrainin,SoftwareType,DateUTC
2013-04-13 07:30:00,30.6,29.6,29.84,ESE,120,0.0,0.0,96,0.00,,,0.00,Wunderground v.1.15,2013-04-13 11:30:00,
2013-04-13 07:35:00,30.8,29.8,29.84,ESE,120,0.0,0.0,96,0.00,,,0.00,Wunderground v.1.15,2013-04-13 11:35:00,
2013-04-13 07:40:00,30.8,29.5,29.84,ESE,120,0.0,0.0,95,0.00,,,0.00,Wunderground v.1.15,2013-04-13 11:40:00,
2013-04-13 07:50:00,31.0,29.7,29.84,ESE,120,0.0,0.0,95,0.00,,,0.00,Wunderground v.1.15,2013-04-13 11:50:00,
2013-04-13 07:55:00,31.1,29.8,29.84,ESE,120,0.0,0.0,95,0.00,,,0.00,Wunderground v.1.15,2013-04-13 11:55:00,
2013-04-13 08:00:00,31.1,29.8,29.84,ESE,120,0.0,0.0,95,0.00,,,0.00,Wunderground v.1.15,2013-04-13 12:00:00,
2013-04-13 08:10:00,31.8,30.5,29.84,ESE,118,0.0,0.0,95,0.00,,,0.00,Wunderground v.1.15,2013-04-13 12:10:00,
2013-04-13 08:15:00,32.0,30.5,29.83,ESE,118,0.0,0.0,94,0.00,,,0.00,Wunderground v.1.15,2013-04-13 12:15:00,
2013-04-13 08:25:00,32.4,30.9,29.84,ESE,118,0.0,0.0,94,0.00,,,0.00,Wunderground v.1.15,2013-04-13 12:25:00,
2013-04-13 08:35:00,33.2,31.1,29.83,ESE,118,0.0,0.0,92,0.00,,,0.00,Wunderground v.1.15,2013-04-13 12:35:00,
2013-04-13 08:45:00,33.6,31.3,29.83,ESE,118,0.0,0.0,91,0.00,,,0.00,Wunderground v.1.15,2013-04-13 12:45:00,
2013-04-13 08:55:00,34.8,31.0,29.83,ESE,118,0.0,0.0,86,0.00,,,0.00,Wunderground v.1.15,2013-04-13 12:55:00,
2013-04-13 09:00:00,35.2,31.1,29.83,ESE,118,0.0,0.0,85,0.00,,,0.00,Wunderground v.1.15,2013-04-13 13:00:00,
2013-04-13 09:05:00,35.7,31.3,29.83,ESE,120,0.0,0.0,84,0.00,,,0.00,Wunderground v.1.15,2013-04-13 13:05:00,
2013-04-13 09:10:00,35.9,31.5,29.83,ESE,120,0.0,0.0,84,0.00,,,0.00,Wunderground v.1.15,2013-04-13 13:10:00,
2013-04-13 09:25:00,36.0,30.7,29.83,SE,132,0.0,0.0,81,0.00,,,0.00,Wunderground v.1.15,2013-04-13 13:25:00,
2013-04-13 09:35:00,36.1,31.1,29.83,SSE,163,0.0,0.0,82,0.00,,,0.00,Wunderground v.1.15,2013-04-13 13:35:00,
2013-04-13 09:45:00,36.8,31.8,29.82,SSE,163,0.0,0.0,82,0.00,,,0.00,Wunderground v.1.15,2013-04-13 13:45:00,
2013-04-13 09:55:00,37.7,31.8,29.82,SE,128,0.0,0.0,79,0.00,,,0.01,Wunderground v.1.15,2013-04-13 13:55:00,
2013-04-13 10:00:00,37.4,31.8,29.82,SE,127,0.0,0.0,80,0.00,,,0.01,Wunderground v.1.15,2013-04-13 14:00:00,
2013-04-13 10:10:00,37.0,31.7,29.82,SE,145,0.0,0.0,81,0.00,,,0.01,Wunderground v.1.15,2013-04-13 14:10:00,
2013-04-13 10:15:00,36.9,31.3,29.82,SE,128,0.0,0.0,80,0.00,,,0.01,Wunderground v.1.15,2013-04-13 14:15:00,
2013-04-13 10:20:00,36.8,31.2,29.82,SE,126,1.0,1.0,80,0.00,,,0.01,Wunderground v.1.15,2013-04-13 14:20:00,
2013-04-13 10:30:00,36.7,30.8,29.82,ESE,121,0.0,1.0,79,0.00,,,0.01,Wunderground v.1.15,2013-04-13 14:30:00,
2013-04-13 10:35:00,36.9,31.3,29.82,SE,126,1.0,1.0,80,0.00,,,0.01,Wunderground v.1.15,2013-04-13 14:35:00,
2013-04-13 10:40:00,37.6,31.4,29.81,SE,126,0.0,0.0,78,0.00,,,0.01,Wunderground v.1.15,2013-04-13 14:40:00,
2013-04-13 10:50:00,38.4,31.8,29.81,SSE,168,1.0,1.0,77,0.00,,,0.01,Wunderground v.1.15,2013-04-13 14:50:00,
2013-04-13 11:00:00,38.8,31.9,29.82,SSE,155,1.0,1.0,76,0.00,,,0.01,Wunderground v.1.15,2013-04-13 15:00:00,
2013-04-13 11:05:00,39.1,32.5,29.81,SE,125,1.0,1.0,77,0.00,,,0.01,Wunderground v.1.15,2013-04-13 15:05:00,
2013-04-13 11:10:00,39.5,32.6,29.81,SSE,150,0.0,0.0,76,0.00,,,0.02,Wunderground v.1.15,2013-04-13 15:10:00,
2013-04-13 11:15:00,40.2,33.2,29.81,SE,138,0.0,1.0,76,0.00,,,0.02,Wunderground v.1.15,2013-04-13 15:15:00,
2013-04-13 11:20:00,40.4,33.4,29.81,SSE,149,0.0,3.0,76,0.23,,,0.04,Wunderground v.1.15,2013-04-13 15:20:00,
2013-04-13 11:30:00,39.7,32.4,29.82,South,186,1.0,2.0,75,0.10,,,0.06,Wunderground v.1.15,2013-04-13 15:30:00,
2013-04-13 11:35:00,39.9,32.9,29.81,SE,138,1.0,2.0,76,0.11,,,0.06,Wunderground v.1.15,2013-04-13 15:35:00,
2013-04-13 11:45:00,40.8,33.2,29.82,SE,141,0.0,2.0,74,0.11,,,0.09,Wunderground v.1.15,2013-04-13 15:45:00,
2013-04-13 11:50:00,40.7,33.1,29.82,ENE,60,0.0,0.0,74,0.11,,,0.09,Wunderground v.1.15,2013-04-13 15:50:00,
2013-04-13 12:00:00,41.0,34.0,29.81,SSE,155,1.0,1.0,76,0.11,,,0.11,Wunderground v.1.15,2013-04-13 16:00:00,
2013-04-13 12:05:00,40.9,33.9,29.82,ESE,122,1.0,1.0,76,0.11,,,0.12,Wunderground v.1.15,2013-04-13 16:05:00,
2013-04-13 12:15:00,40.9,33.9,29.81,SE,133,1.0,1.0,76,0.10,,,0.14,Wunderground v.1.15,2013-04-13 16:15:00,
2013-04-13 12:20:00,40.8,34.1,29.81,SSE,148,1.0,1.0,77,0.10,,,0.15,Wunderground v.1.15,2013-04-13 16:20:00,
2013-04-13 12:30:00,41.3,34.6,29.81,SE,145,1.0,2.0,77,0.11,,,0.16,Wunderground v.1.15,2013-04-13 16:30:00,
2013-04-13 12:35:00,41.6,34.9,29.81,SE,145,1.0,3.0,77,0.11,,,0.17,Wunderground v.1.15,2013-04-13 16:35:00,
2013-04-13 12:40:00,41.5,34.2,29.81,SSW,208,2.0,2.0,75,0.11,,,0.18,Wunderground v.1.15,2013-04-13 16:40:00,
2013-04-13 12:50:00,42.4,35.4,29.80,SSE,158,2.0,2.0,76,0.11,,,0.20,Wunderground v.1.15,2013-04-13 16:50:00,
2013-04-13 12:55:00,42.5,34.8,29.81,SE,134,2.0,2.0,74,0.10,,,0.21,Wunderground v.1.15,2013-04-13 16:55:00,
2013-04-13 13:00:00,43.0,35.3,29.80,SE,141,1.0,1.0,74,0.09,,,0.22,Wunderground v.1.15,2013-04-13 17:00:00,
2013-04-13 13:10:00,43.9,36.1,29.80,East,94,1.0,1.0,74,0.11,,,0.24,Wunderground v.1.15,2013-04-13 17:10:00,
2013-04-13 13:20:00,43.7,35.3,29.80,South,169,2.0,3.0,72,0.10,,,0.25,Wunderground v.1.15,2013-04-13 17:20:00,
2013-04-13 13:25:00,43.6,35.2,29.79,SE,138,2.0,3.0,72,0.10,,,0.26,Wunderground v.1.15,2013-04-13 17:25:00,
2013-04-13 13:35:00,44.0,35.6,29.80,SSE,154,1.0,2.0,72,0.09,,,0.27,Wunderground v.1.15,2013-04-13 17:35:00,
2013-04-13 13:45:00,44.6,35.4,29.80,SE,124,3.0,3.0,70,0.10,,,0.29,Wunderground v.1.15,2013-04-13 17:45:00,
2013-04-13 13:50:00,44.9,35.7,29.80,SE,143,2.0,2.0,70,0.10,,,0.30,Wunderground v.1.15,2013-04-13 17:50:00,
2013-04-13 13:55:00,45.5,35.5,29.79,SSE,148,2.0,2.0,68,0.10,,,0.31,Wunderground v.1.15,2013-04-13 17:55:00,
2013-04-13 14:00:00,45.6,35.6,29.79,ESE,123,2.0,5.0,68,0.10,,,0.31,Wunderground v.1.15,2013-04-13 18:00:00,
2013-04-13 14:05:00,45.5,35.5,29.80,SE,134,3.0,5.0,68,0.10,,,0.32,Wunderground v.1.15,2013-04-13 18:05:00,
2013-04-13 14:15:00,45.9,36.7,29.80,NE,43,2.0,3.0,70,0.09,,,0.34,Wunderground v.1.15,2013-04-13 18:15:00,
2013-04-13 14:20:00,46.3,36.3,29.79,SSE,150,1.0,1.0,68,0.08,,,0.34,Wunderground v.1.15,2013-04-13 18:20:00,
2013-04-13 14:25:00,46.3,35.6,29.79,SE,145,1.0,2.0,66,0.07,,,0.35,Wunderground v.1.15,2013-04-13 18:25:00,
2013-04-13 14:30:00,46.4,36.4,29.79,NE,56,1.0,2.0,68,0.07,,,0.35,Wunderground v.1.15,2013-04-13 18:30:00,
2013-04-13 14:35:00,46.6,35.8,29.79,SE,145,2.0,4.0,66,0.07,,,0.36,Wunderground v.1.15,2013-04-13 18:35:00,
2013-04-13 14:40:00,46.3,36.3,29.79,SE,131,3.0,3.0,68,0.08,,,0.37,Wunderground v.1.15,2013-04-13 18:40:00,
2013-04-13 14:45:00,45.9,37.0,29.79,SSE,155,3.0,3.0,71,0.08,,,0.37,Wunderground v.1.15,2013-04-13 18:45:00,
2013-04-13 14:50:00,46.0,37.5,29.79,SE,129,3.0,3.0,72,0.06,,,0.38,Wunderground v.1.15,2013-04-13 18:50:00,
2013-04-13 14:55:00,45.6,36.4,29.79,SE,139,3.0,4.0,70,0.06,,,0.38,Wunderground v.1.15,2013-04-13 18:55:00,
2013-04-13 15:00:00,45.4,36.5,29.78,SE,129,3.0,4.0,71,0.05,,,0.39,Wunderground v.1.15,2013-04-13 19:00:00,
2013-04-13 15:05:00,45.1,37.0,29.78,SE,132,3.0,4.0,73,0.05,,,0.39,Wunderground v.1.15,2013-04-13 19:05:00,
2013-04-13 15:10:00,45.6,37.4,29.78,SE,138,3.0,3.0,73,0.05,,,0.39,Wunderground v.1.15,2013-04-13 19:10:00,
2013-04-13 15:15:00,46.7,37.4,29.78,SSE,160,2.0,3.0,70,0.05,,,0.40,Wunderground v.1.15,2013-04-13 19:15:00,
2013-04-13 15:20:00,47.2,37.5,29.78,East,91,1.0,1.0,69,0.05,,,0.40,Wunderground v.1.15,2013-04-13 19:20:00,
2013-04-13 15:30:00,46.8,36.8,29.78,ESE,114,1.0,1.0,68,0.00,,,0.40,Wunderground v.1.15,2013-04-13 19:30:00,
2013-04-13 15:35:00,46.8,37.5,29.78,SE,142,1.0,1.0,70,0.00,,,0.41,Wunderground v.1.15,2013-04-13 19:35:00,
2013-04-13 15:40:00,47.1,36.7,29.78,SE,142,1.0,1.0,67,0.00,,,0.41,Wunderground v.1.15,2013-04-13 19:40:00,
2013-04-13 15:45:00,47.2,36.0,29.78,North,3,1.0,5.0,65,0.00,,,0.41,Wunderground v.1.15,2013-04-13 19:45:00,
2013-04-13 15:50:00,46.8,34.9,29.78,NNW,338,2.0,2.0,63,0.00,,,0.41,Wunderground v.1.15,2013-04-13 19:50:00,
2013-04-13 15:55:00,46.8,34.9,29.78,NNW,343,2.0,2.0,63,0.00,,,0.41,Wunderground v.1.15,2013-04-13 19:55:00,
2013-04-13 16:00:00,46.6,33.9,29.77,North,358,3.0,3.0,61,0.00,,,0.41,Wunderground v.1.15,2013-04-13 20:00:00,
2013-04-13 16:10:00,46.5,34.2,29.77,NNE,20,2.0,2.0,62,0.00,,,0.41,Wunderground v.1.15,2013-04-13 20:10:00,
2013-04-13 16:15:00,47.1,34.7,29.77,SE,133,1.0,2.0,62,0.00,,,0.41,Wunderground v.1.15,2013-04-13 20:15:00,
2013-04-13 16:20:00,47.9,35.1,29.76,SE,125,1.0,1.0,61,0.00,,,0.41,Wunderground v.1.15,2013-04-13 20:20:00,
2013-04-13 16:25:00,48.3,34.6,29.77,SE,136,1.0,4.0,59,0.00,,,0.41,Wunderground v.1.15,2013-04-13 20:25:00,
2013-04-13 16:30:00,47.4,36.2,29.77,SE,125,3.0,4.0,65,0.00,,,0.41,Wunderground v.1.15,2013-04-13 20:30:00,
2013-04-13 16:40:00,46.7,35.6,29.77,SE,141,2.0,3.0,65,0.00,,,0.41,Wunderground v.1.15,2013-04-13 20:40:00,
2013-04-13 16:45:00,46.5,36.1,29.77,WNW,290,2.0,3.0,67,0.00,,,0.41,Wunderground v.1.15,2013-04-13 20:45:00,
2013-04-13 16:50:00,46.6,35.8,29.78,SSE,155,1.0,1.0,66,0.00,,,0.41,Wunderground v.1.15,2013-04-13 20:50:00,
2013-04-13 16:55:00,46.5,35.7,29.78,SE,138,1.0,2.0,66,0.00,,,0.41,Wunderground v.1.15,2013-04-13 20:55:00,
2013-04-13 17:00:00,46.3,35.6,29.78,SE,127,2.0,3.0,66,0.00,,,0.41,Wunderground v.1.15,2013-04-13 21:00:00,
2013-04-13 17:10:00,46.3,35.6,29.79,SE,127,1.0,2.0,66,0.00,,,0.41,Wunderground v.1.15,2013-04-13 21:10:00,
2013-04-13 17:15:00,46.4,36.0,29.79,SE,128,0.0,2.0,67,0.00,,,0.41,Wunderground v.1.15,2013-04-13 21:15:00,
2013-04-13 17:20:00,46.6,35.8,29.79,SE,131,0.0,1.0,66,0.00,,,0.41,Wunderground v.1.15,2013-04-13 21:20:00,
2013-04-13 17:25:00,46.7,35.9,29.79,SE,132,0.0,1.0,66,0.00,,,0.41,Wunderground v.1.15,2013-04-13 21:25:00,
2013-04-13 17:30:00,46.6,35.5,29.79,SE,138,0.0,2.0,65,0.00,,,0.41,Wunderground v.1.15,2013-04-13 21:30:00,
2013-04-13 17:35:00,46.4,35.3,29.79,SSE,155,1.0,2.0,65,0.00,,,0.41,Wunderground v.1.15,2013-04-13 21:35:00,
2013-04-13 17:40:00,46.4,35.3,29.80,SSE,162,1.0,1.0,65,0.00,,,0.41,Wunderground v.1.15,2013-04-13 21:40:00,
2013-04-13 17:45:00,46.4,35.7,29.80,ESE,123,0.0,1.0,66,0.00,,,0.41,Wunderground v.1.15,2013-04-13 21:45:00,
2013-04-13 17:55:00,46.2,36.6,29.80,SE,132,1.0,1.0,69,0.00,,,0.41,Wunderground v.1.15,2013-04-13 21:55:00,
2013-04-13 18:05:00,45.7,36.5,29.81,SE,135,1.0,1.0,70,0.00,,,0.41,Wunderground v.1.15,2013-04-13 22:05:00,
2013-04-13 18:10:00,45.5,36.6,29.81,SE,134,1.0,1.0,71,0.00,,,0.41,Wunderground v.1.15,2013-04-13 22:10:00,
2013-04-13 18:15:00,45.2,36.4,29.82,ESE,120,1.0,1.0,71,0.00,,,0.41,Wunderground v.1.15,2013-04-13 22:15:00,
2013-04-13 18:20:00,45.1,36.3,29.82,NE,53,0.0,1.0,71,0.00,,,0.41,Wunderground v.1.15,2013-04-13 22:20:00,
2013-04-13 18:25:00,44.9,36.4,29.82,NE,52,0.0,1.0,72,0.00,,,0.41,Wunderground v.1.15,2013-04-13 22:25:00,
2013-04-13 18:35:00,44.5,36.0,29.83,ENE,61,0.0,2.0,72,0.00,,,0.41,Wunderground v.1.15,2013-04-13 22:35:00,
2013-04-13 18:45:00,44.2,36.1,29.83,NE,55,1.0,1.0,73,0.00,,,0.41,Wunderground v.1.15,2013-04-13 22:45:00,
2013-04-13 18:50:00,44.1,36.0,29.84,NE,55,1.0,1.0,73,0.00,,,0.41,Wunderground v.1.15,2013-04-13 22:50:00,
2013-04-13 18:55:00,44.0,36.2,29.84,SE,131,0.0,1.0,74,0.00,,,0.41,Wunderground v.1.15,2013-04-13 22:55:00,
2013-04-13 19:00:00,43.8,36.7,29.84,SE,131,0.0,0.0,76,0.00,,,0.41,Wunderground v.1.15,2013-04-13 23:00:00,
2013-04-13 19:10:00,43.2,36.5,29.84,SE,126,0.0,0.0,77,0.00,,,0.41,Wunderground v.1.15,2013-04-13 23:10:00,
2013-04-13 19:15:00,42.7,36.0,29.84,ESE,123,0.0,0.0,77,0.00,,,0.41,Wunderground v.1.15,2013-04-13 23:15:00,
2013-04-13 19:20:00,42.4,36.0,29.84,ESE,122,0.0,0.0,78,0.00,,,0.41,Wunderground v.1.15,2013-04-13 23:20:00,
2013-04-13 19:25:00,42.2,36.5,29.84,ESE,122,0.0,0.0,80,0.00,,,0.41,Wunderground v.1.15,2013-04-13 23:25:00,
2013-04-13 19:30:00,42.0,36.6,29.84,ESE,123,0.0,0.0,81,0.00,,,0.41,Wunderground v.1.15,2013-04-13 23:30:00,
2013-04-13 19:40:00,41.7,36.3,29.84,ESE,120,0.0,0.0,81,0.00,,,0.41,Wunderground v.1.15,2013-04-13 23:40:00,
2013-04-13 19:45:00,41.5,36.4,29.84,ESE,120,0.0,0.0,82,0.00,,,0.41,Wunderground v.1.15,2013-04-13 23:45:00,
2013-04-13 19:50:00,41.2,36.4,29.84,ESE,120,0.0,0.0,83,0.00,,,0.41,Wunderground v.1.15,2013-04-13 23:50:00,
2013-04-13 19:55:00,41.0,36.5,29.84,ESE,120,0.0,0.0,84,0.00,,,0.41,Wunderground v.1.15,2013-04-13 23:55:00,
2013-04-13 20:00:00,40.7,36.2,29.85,ESE,120,0.0,0.0,84,0.00,,,0.41,Wunderground v.1.15,2013-04-14 00:00:00,
2013-04-13 20:05:00,40.5,36.0,29.85,ESE,120,0.0,0.0,84,0.00,,,0.41,Wunderground v.1.15,2013-04-14 00:05:00,
2013-04-13 20:15:00,40.4,35.9,29.85,ESE,120,0.0,0.0,84,0.00,,,0.41,Wunderground v.1.15,2013-04-14 00:15:00,
2013-04-13 20:20:00,40.3,36.1,29.85,East,86,0.0,0.0,85,0.00,,,0.41,Wunderground v.1.15,2013-04-14 00:20:00,
2013-04-13 20:25:00,40.2,36.1,29.85,East,86,0.0,0.0,85,0.00,,,0.41,Wunderground v.1.15,2013-04-14 00:25:00,
2013-04-13 20:30:00,39.9,36.1,29.86,ESE,103,0.0,0.0,86,0.00,,,0.41,Wunderground v.1.15,2013-04-14 00:30:00,
2013-04-13 20:35:00,39.6,36.0,29.86,ESE,103,0.0,0.0,87,0.00,,,0.41,Wunderground v.1.15,2013-04-14 00:35:00,
2013-04-13 20:40:00,39.5,36.2,29.86,NE,51,0.0,0.0,88,0.00,,,0.41,Wunderground v.1.15,2013-04-14 00:40:00,
2013-04-13 20:45:00,39.6,36.0,29.87,NE,51,0.0,0.0,87,0.00,,,0.41,Wunderground v.1.15,2013-04-14 00:45:00,
2013-04-13 20:55:00,39.3,35.8,29.87,NE,51,0.0,0.0,87,0.00,,,0.41,Wunderground v.1.15,2013-04-14 00:55:00,
2013-04-13 21:00:00,39.0,35.7,29.87,NE,51,0.0,0.0,88,0.00,,,0.41,Wunderground v.1.15,2013-04-14 01:00:00,
2013-04-13 21:05:00,38.9,35.9,29.87,NE,51,0.0,0.0,89,0.00,,,0.41,Wunderground v.1.15,2013-04-14 01:05:00,
2013-04-13 21:10:00,38.7,35.7,29.87,NE,51,0.0,0.0,89,0.00,,,0.41,Wunderground v.1.15,2013-04-14 01:10:00,
2013-04-13 21:15:00,38.6,35.9,29.86,NE,51,0.0,0.0,90,0.00,,,0.41,Wunderground v.1.15,2013-04-14 01:15:00,
2013-04-13 21:25:00,38.5,36.1,29.86,NE,51,0.0,0.0,91,0.00,,,0.41,Wunderground v.1.15,2013-04-14 01:25:00,
2013-04-13 21:30:00,38.4,36.0,29.86,NE,51,0.0,0.0,91,0.00,,,0.41,Wunderground v.1.15,2013-04-14 01:30:00,
2013-04-13 21:35:00,38.3,35.9,29.87,NE,51,0.0,0.0,91,0.00,,,0.41,Wunderground v.1.15,2013-04-14 01:35:00,
2013-04-13 21:40:00,38.1,36.0,29.87,NE,51,0.0,0.0,92,0.00,,,0.41,Wunderground v.1.15,2013-04-14 01:40:00,
2013-04-13 21:45:00,38.1,36.0,29.87,NE,51,0.0,0.0,92,0.00,,,0.41,Wunderground v.1.15,2013-04-14 01:45:00,
2013-04-13 21:55:00,38.0,36.2,29.87,NE,51,0.0,0.0,93,0.00,,,0.42,Wunderground v.1.15,2013-04-14 01:55:00,
2013-04-13 22:00:00,37.8,36.0,29.87,NE,51,0.0,0.0,93,0.00,,,0.42,Wunderground v.1.15,2013-04-14 02:00:00,
2013-04-13 22:05:00,37.5,35.7,29.87,NE,51,0.0,0.0,93,0.00,,,0.42,Wunderground v.1.15,2013-04-14 02:05:00,
2013-04-13 22:10:00,37.4,35.6,29.88,NE,51,0.0,0.0,93,0.00,,,0.42,Wunderground v.1.15,2013-04-14 02:10:00,
2013-04-13 22:15:00,37.4,35.8,29.88,NE,51,0.0,0.0,94,0.00,,,0.42,Wunderground v.1.15,2013-04-14 02:15:00,
2013-04-13 22:20:00,37.5,35.9,29.87,NE,51,0.0,0.0,94,0.00,,,0.42,Wunderground v.1.15,2013-04-14 02:20:00,